Regional Weather Roundup
Issued by NWS

Home | Current Version | Previous Version | Text Only | Print | Product List | Glossary Off
Versions: 1 2 3 4 5 6 7 8 9 10 11 12 13 14 15 16 17 18 19 20 21 22 23 24 25 26 27 28 29 30 31 32 33 34 35 36 37 38 39 40 41 42 43 44 45 46 47 48 49 50

000
ASUS43 KOAX 271510
RWRNE

WEATHER ROUNDUP FOR NEBRASKA
NATIONAL WEATHER SERVICE OMAHA NE
900 AM CST MON FEB 27 2017

NOTES: SATELLITE DATA IS BEING USED TO AUGMENT CLOUD COVER ABOVE
       12000 FEET.
       "FAIR" INDICATES FEW OR NO CLOUDS BELOW 12,000 FEET WITH NO
       SIGNIFICANT WEATHER AND/OR OBSTRUCTIONS TO VISIBILITY.

  * THESE STATIONS DO NOT REPORT WEATHER SUCH AS RAIN...SNOW OR FOG.

NEZ001>004-019>022-054>056-271600-
NEBRASKA PANHANDLE

CITY           SKY/WX    TMP DP  RH WIND       PRES   REMARKS
SCOTTSBLUFF    CLOUDY    14   6  70 E8        29.69S WCI   3
ALLIANCE       CLOUDY    14   8  77 CALM      29.68R
CHADRON        CLOUDY    28  16  60 S12       29.67R WCI  18
KIMBALL        CLOUDY    17  10  74 CALM      29.67R
SIDNEY         CLOUDY    24  16  71 SW8       29.70R WCI  15
$$

NEZ057>060-069>072-079>082-271600-
SOUTHWEST NEBRASKA

CITY           SKY/WX    TMP DP  RH WIND       PRES   REMARKS
NORTH PLATTE   CLOUDY    23  16  74 E10       29.81F WCI  12
IMPERIAL       CLOUDY    26  18  71 SE9       29.78S WCI  17
LEXINGTON      CLOUDY    26  19  75 CALM      29.88F
MCCOOK         CLOUDY    20  14  77 E5        29.84F WCI  13
OGALLALA       CLOUDY    25  17  73 CALM      29.76S
$$

NEZ005>010-023>029-035>040-094-271600-
NORTH CENTRAL NEBRASKA

CITY           SKY/WX    TMP DP  RH WIND       PRES   REMARKS
VALENTINE      CLOUDY    29  16  58 S20       29.73F WCI  16
AINSWORTH      CLOUDY    27  15  60 S21       29.76F WCI  13
BROKEN BOW     SUNNY     28  16  60 S6        29.85S WCI  22
O`NEILL        CLOUDY    26  15  64 S9        29.84S WCI  17
ORD            CLOUDY    24  18  77 E5        29.88R WCI  18
THEDFORD       SUNNY     31  19  60 S16G22    29.78S WCI  20
$$

NEZ041-046>049-061>064-073>077-083>087-271600-
SOUTH CENTRAL NEBRASKA

CITY           SKY/WX    TMP DP  RH WIND       PRES   REMARKS
GRAND ISLAND   SUNNY     34  24  67 S8        29.91S WCI  27
AURORA         PTSUNNY   33  23  64 S8        29.92S WCI  27
HASTINGS       SUNNY     32  22  66 S7        29.91F WCI  26
HEBRON         CLOUDY    35  29  79 SE7       29.95S WCI  30
HOLDREGE       SUNNY     32  20  60 S6        29.88S WCI  26
KEARNEY *      SUNNY     30  21  69 S6        29.90S WCI  24
YORK           SUNNY     32  25  74 S6        29.94S WCI  26
$$

NEZ011>018-030>034-042>045-271600-
NORTHEAST NEBRASKA

CITY           SKY/WX    TMP DP  RH WIND       PRES   REMARKS
NORFOLK        SUNNY     29  19  66 S8        29.91F WCI  21
ALBION         MOSUNNY   29  19  64 S7        29.91F WCI  22
BLAIR          SUNNY     32  25  74 S7        29.96S WCI  26
FREMONT        SUNNY     33  26  76 CALM      29.98R
TEKAMAH        SUNNY     26  25  96 SW3       29.99R
WAYNE          SUNNY     25  20  79 S6        29.93S WCI  18
$$

NEZ050>053-065>068-078-088>093-271600-
SOUTHEAST NEBRASKA

CITY           SKY/WX    TMP DP  RH WIND       PRES   REMARKS
LINCOLN        SUNNY     29  23  78 CALM      29.99R
OMAHA EPPLEY   MOSUNNY   32  25  75 S6        29.98S WCI  26
BEATRICE       SUNNY     35  28  75 SE5       29.96F WCI  30
FALLS CITY     SUNNY     34  32  92 SE7       30.00S WCI  28
NEBRASKA CITY  SUNNY     32  25  76 S8        30.00R WCI  25
PLATTSMOUTH    SUNNY     33  24  71 SE8       29.98R WCI  26
$$

NEZ044-045-051>053-067-271600-
OMAHA AREA

CITY           SKY/WX    TMP DP  RH WIND       PRES   REMARKS
OMAHA EPPLEY   MOSUNNY   32  25  75 S6        29.98S WCI  26
BLAIR          SUNNY     32  25  74 S7        29.96S WCI  26
FREMONT        SUNNY     33  26  76 CALM      29.98R
MILLARD        SUNNY     32  26  80 SE3       29.99R
OFFUTT AFB     SUNNY     32  26  78 S7        29.99R WCI  25
PLATTSMOUTH    SUNNY     33  24  71 SE8       29.98R WCI  26
WAHOO          FAIR      31  25  78 CALM      29.97S
$$




USA.gov is the U.S. government's official web portal to all federal, state and local government web resources and services.